Regional Weather Roundup
Issued by NWS

Home | Current Version | Previous Version | Text Only | Print | Product List | Glossary Off
Versions: 1 2 3 4 5 6 7 8 9 10 11 12 13 14 15 16 17 18 19 20 21 22 23 24 25 26 27 28 29 30 31 32 33 34 35 36 37 38 39 40 41 42 43 44 45 46 47 48 49 50

000
ASUS43 KMKX 210011
RWRWI

WISCONSIN REGIONAL WEATHER ROUNDUP
NATIONAL WEATHER SERVICE MILWAUKEE/SULLIVAN WI
600 PM CST SAT DEC 20 2014

NOTE: "FAIR" INDICATES FEW OR NO CLOUDS BELOW 12,000 FEET WITH NO
SIGNIFICANT WEATHER AND/OR OBSTRUCTIONS TO VISIBILITY.

WIZ001-002-006>008-014>016-023>028-210100-
NORTHWEST WISCONSIN

CITY           SKY/WX    TMP DP  RH WIND       PRES   REMARKS
SUPERIOR ARPT  CLOUDY    32  28  86 S6        30.10F WCI  26
6HR MIN TEMP:  32; 6HR MAX TEMP:  32;

ASHLAND        CLOUDY    31  26  82 S3        30.14S
6HR MIN TEMP:  31; 6HR MAX TEMP:  32;

HAYWARD        CLOUDY    30  25  81 S8        30.11F WCI  22
6HR MIN TEMP:  29; 6HR MAX TEMP:  30;

SIREN          CLOUDY    31  28  85 S9        30.11S WCI  23
6HR MIN TEMP:  31; 6HR MAX TEMP:  32;

CUMBERLAND     CLOUDY    30  27  86 S8        30.11S WCI  23
RICE LAKE      CLOUDY    31  27  85 SE9       30.14S WCI  23
6HR MIN TEMP:  31; 6HR MAX TEMP:  32;

CHETEK         CLOUDY    31  27  88 SE7       30.14S WCI  24
6HR MIN TEMP:  30; 6HR MAX TEMP:  31;

LADYSMITH      CLOUDY    30  27  89 SE6       30.15S FOG     WCI  24
6HR MIN TEMP:  29; 6HR MAX TEMP:  31;

EAU CLAIRE     CLOUDY    31  26  82 S10       30.15S WCI  22
6HR MIN TEMP:  31; 6HR MAX TEMP:  32;

MENOMONIE      CLOUDY    32  28  84 SE8       30.14F FOG     WCI  25
6HR MIN TEMP:  32; 6HR MAX TEMP:  33;

NEW RICHMOND   CLOUDY    31  30  96 S8        30.13S FOG     WCI  24
6HR MIN TEMP:  31; 6HR MAX TEMP:  31;

OSCEOLA        CLOUDY    32  31  98 SE8       30.15R WCI  25
6HR MIN TEMP:  32; 6HR MAX TEMP:  32;

$$

WIZ003>005-009-010-017-018-210100-
NORTH CENTRAL WISCONSIN

CITY           SKY/WX    TMP DP  RH WIND       PRES   REMARKS
MANITOWISH WTR CLOUDY    27  26  95 S7        30.12S WCI  19
6HR MIN TEMP:  25; 6HR MAX TEMP:  27;

ARBOR VITAE    CLOUDY    29  27  90 SE5       30.13S FOG     WCI  24
6HR MIN TEMP:  27; 6HR MAX TEMP:  29;

WOODRUFF       CLOUDY    29  27  90 SE5       30.13S FOG     WCI  24
6HR MIN TEMP:  27; 6HR MAX TEMP:  29;

RHINELANDER    CLOUDY    27  24  89 S5        30.15S WCI  22
6HR MIN TEMP:  25; 6HR MAX TEMP:  27;

EAGLE RIVER    CLOUDY    28  27  99 CALM      30.14S
6HR MIN TEMP:  25; 6HR MAX TEMP:  28;

LAND O LAKES   CLOUDY    28  28  99 S3        30.14S FOG
6HR MIN TEMP:  26; 6HR MAX TEMP:  28;

PHILLIPS       CLOUDY    28  25  91 S7        30.12F FOG     WCI  20
6HR MIN TEMP:  27; 6HR MAX TEMP:  28;

TOMAHAWK       CLOUDY    27  25  91 CALM      30.16S FOG
6HR MIN TEMP:  26; 6HR MAX TEMP:  28;

MEDFORD        CLOUDY    28  26  91 SE6       30.14F FOG     WCI  21
6HR MIN TEMP:  27; 6HR MAX TEMP:  28;

MERRILL        CLOUDY    28  26  91 SE3       30.17S
6HR MIN TEMP:  27; 6HR MAX TEMP:  28;

$$

WIZ029-030-035-036-043>047-210100-
CENTRAL WISCONSIN

CITY           SKY/WX    TMP DP  RH WIND       PRES   REMARKS
WAUSAU         CLOUDY    29  24  82 SE6       30.16F WCI  23
6HR MIN TEMP:  27; 6HR MAX TEMP:  30;

MOSINEE        CLOUDY    28  27  93 SE5       30.18S WCI  23
MARSHFIELD     CLOUDY    30  26  85 SE6       30.16S WCI  24
6HR MIN TEMP:  29; 6HR MAX TEMP:  30;

STEVENS POINT  CLOUDY    28  25  87 SE3       30.19S
6HR MIN TEMP:  27; 6HR MAX TEMP:  29;

WAUPACA        PTCLDY    28  25  88 E5        30.22R FOG     WCI  23
6HR MIN TEMP:  28; 6HR MAX TEMP:  32;

WAUTOMA        CLOUDY    30  27  89 SE3       30.22R
6HR MIN TEMP:  29; 6HR MAX TEMP:  32; 6HR PCP: TRACE;

WISC RAPIDS    CLOUDY    30  24  78 S5        30.21R WCI  25
6HR MIN TEMP:  29; 6HR MAX TEMP:  31;

CAMP DOUGLAS   CLOUDY    30  30 100 SE7       30.19R WCI  23
6HR MIN TEMP:  29; 6HR MAX TEMP:  30; 6HR PCP: TRACE;

$$

WIZ011>013-019>022-031-037>040-048>050-210100-
NORTHEAST WISCONSIN

CITY           SKY/WX    TMP DP  RH WIND       PRES   REMARKS
ANTIGO         CLOUDY    26  24  91 S6        30.17S WCI  19
6HR MIN TEMP:  24; 6HR MAX TEMP:  26;

SHAWANO        CLOUDY    31  26  81 CALM      30.22S
6HR MIN TEMP:  29; 6HR MAX TEMP:  32;

OCONTO         CLOUDY    28  26  92 CALM      30.23S
6HR MIN TEMP:  28; 6HR MAX TEMP:  29;

STURGEON BAY   CLOUDY    27  21  80 CALM      30.24F
6HR MIN TEMP:  27; 6HR MAX TEMP:  30;

GREEN BAY      CLOUDY    30  26  85 CALM      30.23S FOG
6HR MIN TEMP:  29; 6HR MAX TEMP:  30;

MANITOWOC      CLOUDY    30  26  85 CALM      30.24S
6HR MIN TEMP:  29; 6HR MAX TEMP:  33; 6HR PCP: TRACE;

APPLETON       CLOUDY    27  23  86 VRB3      30.22S FOG
CLINTONVILLE   CLOUDY    28  27  93 S3        30.21F
OSHKOSH        CLOUDY    28  25  88 CALM      30.22S FOG
6HR MIN TEMP:  27; 6HR MAX TEMP:  30; 6HR PCP: TRACE;

$$

WIZ032>034-041-042-053>061-210100-
SOUTHWEST WISCONSIN

CITY           SKY/WX    TMP DP  RH WIND       PRES   REMARKS
LA CROSSE      CLOUDY    33  28  81 S6        30.18S WCI  28
6HR MIN TEMP:  32; 6HR MAX TEMP:  33;

SPARTA         CLOUDY    31  27  84 SE5       30.19S WCI  26
6HR MIN TEMP:  31; 6HR MAX TEMP:  31;

VIROQUA        CLOUDY    29  29 100 SE7       30.17R WCI  22
6HR MIN TEMP:  29; 6HR MAX TEMP:  30;

BOSCOBEL       CLOUDY    33  26  75 CALM      30.21S
6HR MIN TEMP:  32; 6HR MAX TEMP:  33;

PRAIRIE DU CHI CLOUDY    32  27  81 E6        30.20R WCI  26
6HR MIN TEMP:  31; 6HR MAX TEMP:  32;

PLATTEVILLE    CLOUDY    31  27  85 CALM      30.21S
6HR MIN TEMP:  31; 6HR MAX TEMP:  32;

$$

WIZ056-057-062-063-064-067-068-210100-
SOUTH CENTRAL WISCONSIN

CITY           SKY/WX    TMP DP  RH WIND       PRES   REMARKS
REEDSBURG      CLOUDY    29  27  90 CALM      30.20S
6HR MIN TEMP:  29; 6HR MAX TEMP:  30;

BARABOO/DELLS  CLOUDY    29  26  89 SE5       30.20S FOG     WCI  24
6HR MIN TEMP:  29; 6HR MAX TEMP:  30;

LONE ROCK      CLOUDY    34  25  69 SE5       30.22R WCI  30
6HR MIN TEMP:  34; 6HR MAX TEMP:  35;

MINERAL POINT  CLOUDY    32  28  86 SE7       30.19S WCI  26
MADISON        FLURRIES  30  26  85 S7        30.22R WCI  23
6HR MIN TEMP:  29; 6HR MAX TEMP:  30; 6HR PCP: TRACE;

MIDDLETON      CLOUDY    31  28  85 S5        30.22S WCI  27
6HR MIN TEMP:  31; 6HR MAX TEMP:  32;

WATERTOWN      CLOUDY    29  28  98 CALM      30.23R FOG
6HR MIN TEMP:  28; 6HR MAX TEMP:  29;

MONROE         CLOUDY    30  28  93 SE6       30.21S WCI  24
JANESVILLE     CLOUDY    32  28  86 SE3       30.23R
$$

WIZ051-052-058>065-066-070>072-210100-
SOUTHEAST WISCONSIN

CITY           SKY/WX    TMP DP  RH WIND       PRES   REMARKS
MILWAUKEE      CLOUDY    31  23  72 S3        30.25R
6HR MIN TEMP:  30; 6HR MAX TEMP:  32; 6HR PCP: TRACE;

WAUKESHA       CLOUDY    28  25  86 SE3       30.24R
MILWAUKEE/TIMM CLOUDY    30  23  74 CALM      30.25R
RACINE         CLOUDY    31  24  75 CALM      30.26S
6HR MIN TEMP:  31; 6HR MAX TEMP:  31;

BURLINGTON     CLOUDY    29  26  86 CALM      30.24S
6HR MIN TEMP:  28; 6HR MAX TEMP:  30;

KENOSHA        CLOUDY    31  25  78 S3        30.25R
6HR MIN TEMP:  30; 6HR MAX TEMP:  32;

FOND DU LAC    MOCLDY    28  24  85 CALM      30.22S
6HR MIN TEMP:  27; 6HR MAX TEMP:  30; 6HR PCP: TRACE;

SHEBOYGAN      CLOUDY    30  26  85 CALM      30.23S
6HR MIN TEMP:  29; 6HR MAX TEMP:  32; 6HR PCP: TRACE;

WEST BEND      CLOUDY    30  25  80 CALM      30.23R
JUNEAU         CLOUDY    28  26  89 S6        30.24R FOG     WCI  22
6HR MIN TEMP:  28; 6HR MAX TEMP:  29;

$$

LSZ147-162-210100-
LAKE SUPERIOR

STATION/POSITION TIME  TEMP    WIND        PRES    WAVE
                       AIR SEA DIR/SP/G            HT/PER
                 (UTC) (F)     (DEG/KT/KT) (MB)    (FT/S)
DEVILS ISLAND    0000   32     180/  8/ 11 1021.2F
PORT WING        2340   32     140/  2/  4 1020.0F
SAXON HARBOR     2340   33      CALM  /  4 1020.7S
$$

LMZ867-665-643>646-210100-
LAKE MICHIGAN

STATION/POSITION TIME  TEMP    WIND        PRES    WAVE


USA.gov is the U.S. government's official web portal to all federal, state and local government web resources and services.